Time,TemperatureF,DewpointF,PressureIn,WindDirection,WindDirectionDegrees,WindSpeedMPH,WindSpeedGustMPH,Humidity,HourlyPrecipIn,Conditions,Clouds,dailyrainin,SoftwareType,DateUTC
2014-03-11 00:23:00,37.0,29.0,29.61,South,183,1.0,2.0,72,0.00,,,0.00,,2014-03-11 04:23:00,
2014-03-11 00:43:00,37.0,29.0,29.60,South,189,0.0,2.0,72,0.00,,,0.00,,2014-03-11 04:43:00,
2014-03-11 00:53:00,36.0,28.0,29.59,ESE,111,0.0,2.0,73,0.00,,,0.00,,2014-03-11 04:53:00,
2014-03-11 01:23:00,36.0,29.0,29.57,SSE,158,0.0,0.0,75,0.00,,,0.00,,2014-03-11 05:23:00,
2014-03-11 01:42:00,35.0,28.0,29.58,SSE,158,0.0,0.0,76,0.00,,,0.00,,2014-03-11 05:42:00,
2014-03-11 01:53:00,35.0,28.0,29.58,SSE,158,0.0,0.0,76,0.00,,,0.00,,2014-03-11 05:53:00,
2014-03-11 02:22:00,37.0,30.0,29.57,SW,218,1.0,5.0,75,0.00,,,0.00,,2014-03-11 06:22:00,
2014-03-11 02:53:00,37.0,30.0,29.57,West,273,1.0,3.0,75,0.00,,,0.00,,2014-03-11 06:53:00,
2014-03-11 03:22:00,37.0,30.0,29.55,SW,231,1.0,5.0,76,0.00,,,0.00,,2014-03-11 07:22:00,
2014-03-11 03:42:00,37.0,30.0,29.54,NW,309,1.0,4.0,75,0.00,,,0.00,,2014-03-11 07:42:00,
2014-03-11 03:53:00,38.0,30.0,29.54,WNW,294,1.0,5.0,74,0.00,,,0.00,,2014-03-11 07:53:00,
2014-03-11 04:22:00,39.0,31.0,29.53,SW,228,2.0,5.0,72,0.00,,,0.00,,2014-03-11 08:22:00,
2014-03-11 04:42:00,39.0,31.0,29.54,WNW,286,2.0,6.0,72,0.00,,,0.00,,2014-03-11 08:42:00,
2014-03-11 04:53:00,39.0,30.0,29.54,West,273,3.0,7.0,71,0.00,,,0.00,,2014-03-11 08:53:00,
2014-03-11 05:22:00,39.0,30.0,29.54,WNW,296,1.0,5.0,70,0.00,,,0.00,,2014-03-11 09:22:00,
2014-03-11 05:53:00,39.0,30.0,29.56,West,273,2.0,6.0,71,0.00,,,0.00,,2014-03-11 09:53:00,
2014-03-11 06:23:00,38.0,30.0,29.57,WNW,284,1.0,5.0,73,0.00,,,0.00,,2014-03-11 10:23:00,
2014-03-11 06:43:00,37.0,29.0,29.57,NW,307,1.0,5.0,73,0.00,,,0.00,,2014-03-11 10:43:00,
2014-03-11 06:53:00,37.0,29.0,29.58,West,269,1.0,4.0,74,0.00,,,0.00,,2014-03-11 10:53:00,
2014-03-11 07:23:00,38.0,30.0,29.59,West,279,0.0,3.0,74,0.00,,,0.00,,2014-03-11 11:23:00,
2014-03-11 07:42:00,38.0,31.0,29.60,WSW,237,1.0,3.0,75,0.00,,,0.00,,2014-03-11 11:42:00,
2014-03-11 07:52:00,38.0,31.0,29.61,SW,223,1.0,6.0,75,0.00,,,0.00,,2014-03-11 11:52:00,
2014-03-11 08:22:00,39.0,31.0,29.62,NW,304,2.0,7.0,73,0.00,,,0.00,,2014-03-11 12:22:00,
2014-03-11 08:42:00,40.0,32.0,29.62,WNW,300,1.0,5.0,73,0.00,,,0.00,,2014-03-11 12:42:00,
2014-03-11 08:53:00,40.0,32.0,29.62,WNW,288,3.0,6.0,72,0.00,,,0.00,,2014-03-11 12:53:00,
2014-03-11 09:22:00,44.0,34.0,29.62,SW,234,2.0,5.0,67,0.00,,,0.00,,2014-03-11 13:22:00,
2014-03-11 10:22:00,51.0,36.0,29.63,SW,232,1.0,6.0,56,0.00,,,0.00,,2014-03-11 14:22:00,
2014-03-11 10:42:00,54.0,37.0,29.63,NNW,340,1.0,8.0,52,0.00,,,0.00,,2014-03-11 14:42:00,
2014-03-11 10:52:00,55.0,36.0,29.63,NNW,346,2.0,8.0,49,0.00,,,0.00,,2014-03-11 14:52:00,
2014-03-11 11:26:00,57.0,36.0,29.62,NNW,337,2.0,8.0,45,0.00,,,0.00,,2014-03-11 15:26:00,
2014-03-11 11:54:00,57.0,35.0,29.63,WNW,302,4.0,10.0,44,0.00,,,0.00,,2014-03-11 15:54:00,
2014-03-11 12:24:00,56.0,34.0,29.63,NW,311,2.0,14.0,43,0.00,,,0.00,,2014-03-11 16:24:00,
2014-03-11 12:43:00,56.0,34.0,29.63,NNW,334,3.0,9.0,44,0.00,,,0.00,,2014-03-11 16:43:00,
2014-03-11 12:53:00,58.0,34.0,29.62,WNW,287,3.0,11.0,41,0.00,,,0.00,,2014-03-11 16:53:00,
2014-03-11 13:23:00,60.0,36.0,29.63,NE,43,1.0,8.0,40,0.00,,,0.00,,2014-03-11 17:23:00,
2014-03-11 13:43:00,60.0,34.0,29.62,North,360,3.0,8.0,38,0.00,,,0.00,,2014-03-11 17:43:00,
2014-03-11 13:52:00,61.0,33.0,29.62,NW,324,3.0,10.0,35,0.00,,,0.00,,2014-03-11 17:52:00,
2014-03-11 14:22:00,62.0,33.0,29.62,WNW,288,1.0,9.0,33,0.00,,,0.00,,2014-03-11 18:22:00,
2014-03-11 14:52:00,62.0,33.0,29.61,NW,317,3.0,10.0,33,0.00,,,0.00,,2014-03-11 18:52:00,
2014-03-11 15:22:00,61.0,30.0,29.62,NNW,333,4.0,8.0,31,0.00,,,0.00,,2014-03-11 19:22:00,
2014-03-11 15:42:00,62.0,30.0,29.62,NW,309,4.0,9.0,30,0.00,,,0.00,,2014-03-11 19:42:00,
2014-03-11 15:52:00,62.0,33.0,29.62,West,259,1.0,5.0,33,0.00,,,0.00,,2014-03-11 19:52:00,
2014-03-11 16:22:00,62.0,31.0,29.62,NNW,327,1.0,6.0,31,0.00,,,0.00,,2014-03-11 20:22:00,
2014-03-11 16:53:00,60.0,28.0,29.64,WSW,245,3.0,8.0,30,0.00,,,0.00,,2014-03-11 20:53:00,
2014-03-11 17:22:00,57.0,30.0,29.63,WSW,253,1.0,7.0,35,0.00,,,0.00,,2014-03-11 21:22:00,
2014-03-11 17:43:00,57.0,29.0,29.64,WNW,287,1.0,2.0,34,0.00,,,0.00,,2014-03-11 21:43:00,
2014-03-11 17:53:00,56.0,29.0,29.64,West,279,1.0,4.0,35,0.00,,,0.00,,2014-03-11 21:53:00,
2014-03-11 18:23:00,55.0,29.0,29.66,West,259,0.0,1.0,37,0.00,,,0.00,,2014-03-11 22:23:00,
2014-03-11 18:43:00,54.0,28.0,29.67,WNW,287,0.0,2.0,37,0.00,,,0.00,,2014-03-11 22:43:00,
2014-03-11 18:53:00,54.0,28.0,29.67,WNW,287,0.0,1.0,36,0.00,,,0.00,,2014-03-11 22:53:00,
2014-03-11 19:23:00,52.0,26.0,29.68,WNW,287,0.0,0.0,36,0.00,,,0.00,,2014-03-11 23:23:00,
2014-03-11 19:42:00,51.0,26.0,29.69,WNW,287,0.0,1.0,37,0.00,,,0.00,,2014-03-11 23:42:00,
2014-03-11 19:53:00,51.0,26.0,29.69,WNW,287,0.0,0.0,38,0.00,,,0.00,,2014-03-11 23:53:00,
2014-03-11 20:22:00,50.0,26.0,29.70,WNW,287,0.0,1.0,39,0.00,,,0.00,,2014-03-12 00:22:00,
2014-03-11 20:42:00,50.0,26.0,29.70,WNW,287,0.0,1.0,39,0.00,,,0.00,,2014-03-12 00:42:00,
2014-03-11 20:52:00,49.0,26.0,29.70,WNW,294,0.0,1.0,41,0.00,,,0.00,,2014-03-12 00:52:00,
2014-03-11 21:22:00,47.0,27.0,29.72,NNE,31,0.0,0.0,45,0.00,,,0.00,,2014-03-12 01:22:00,
2014-03-11 21:42:00,47.0,26.0,29.72,NNE,31,0.0,0.0,44,0.00,,,0.00,,2014-03-12 01:42:00,
2014-03-11 21:53:00,47.0,26.0,29.72,NNE,31,0.0,0.0,44,0.00,,,0.00,,2014-03-12 01:53:00,
2014-03-11 22:22:00,46.0,26.0,29.73,NNE,30,0.0,0.0,46,0.00,,,0.00,,2014-03-12 02:22:00,
2014-03-11 22:42:00,45.0,25.0,29.73,NNE,31,0.0,0.0,46,0.00,,,0.00,,2014-03-12 02:42:00,
2014-03-11 22:53:00,45.0,27.0,29.73,NNE,31,0.0,0.0,50,0.00,,,0.00,,2014-03-12 02:53:00,
2014-03-11 23:22:00,44.0,28.0,29.72,NNE,30,0.0,0.0,52,0.00,,,0.00,,2014-03-12 03:22:00,
2014-03-11 23:53:00,44.0,28.0,29.72,NNE,30,0.0,2.0,54,0.00,,,0.00,,2014-03-12 03:53:00,